Location: ??????????
(48.4699°N, 37.9573°E)
Time: 02:18:59
(UTC+00:00)

USA 234 - Pass Details

Date: 20 January 2021
Orbit: 1100 x 1107 km, 123.0° (Epoch: 23 February)

Event Time Altitude Azimuth Distance (km) Brightness Sun altitude
Exits shadow 16:52:54 57° 59° (ENE) 1,279 3.2 -26.9°
Maximum altitude 16:53:46 63° 24° (NNE) 1,225 3.3 -27.0°
Drops below altitude 10° 17:00:13 10° 305° (NW) 2,968 6.2 -28.1°
Sets 17:02:43 0° 303° (WNW) 3,929 7.0 -28.5°
